Regional Weather Roundup
Issued by NWS

Home | Current Version | Previous Version | Graphics & Text | Print | Product List | Glossary On
Versions: 1 2 3 4 5 6 7 8 9 10 11 12 13 14 15 16 17 18 19 20 21 22 23 24 25 26 27 28 29 30 31 32 33 34 35 36 37 38 39 40 41 42 43 44 45 46 47 48 49 50
000
ASUS43 KLOT 011300
RWRIL

ILLINOIS REGIONAL WEATHER ROUNDUP
NATIONAL WEATHER SERVICE CHICAGO/ROMEOVILLE IL
800 AM CDT FRI AUG 01 2014

NOTE: "FAIR" INDICATES FEW OR NO CLOUDS BELOW 12,000 FEET WITH NO
SIGNIFICANT WEATHER AND/OR OBSTRUCTIONS TO VISIBILITY.

* THESE STATIONS ARE NOT UNDER NWS QUALITY CONTROL. THEY ALSO MAY NOT
  REPORT WEATHER SUCH AS PRECIPITATION OR FOG.

ILZ001-002-007-009-015-016-024-011400-
NORTHWEST ILLINOIS

CITY           SKY/WX    TMP DP  RH WIND       PRES   REMARKS
MOLINE         PTSUNNY   67  60  78 CALM      30.09R
STERLING*      MOSUNNY   64  61  88 SW3       30.10R
$$

ILZ003-004-008-010-011-017-018-011400-
NORTH CENTRAL ILLINOIS

CITY           SKY/WX    TMP DP  RH WIND       PRES   REMARKS
ROCKFORD       MOSUNNY   65  61  87 SW7       30.11R
$$

ILZ005-006-012>014-019>023-011400-
NORTHEAST ILLINOIS

CITY           SKY/WX    TMP DP  RH WIND       PRES   REMARKS
CHICAGO-OHARE  MOSUNNY   70  58  65 SW12      30.09R
CHICAGO-MIDWAY PTSUNNY   73  59  61 W10       30.09R
AURORA         MOSUNNY   67  58  72 SE3       30.09F
WAUKEGAN       SUNNY     68  59  73 VRB3      30.07R
DUPAGE AIRPORT MOSUNNY   68  61  78 S6        30.10R
WHEELING       SUNNY     71  61  70 SW6       30.10R
NORTHERLY ISL    N/A     73  59  61 SW5         N/A
$$

LMZ740>746-011400-
SOUTHERN LAKE MICHIGAN

STATION/POSITION SKY/WX   TEMP    WIND        PRES    VSBY  WAVE
                          AIR SEA DIR/SP/G                  HT/PER
                          (F)     (DEG/KT/KT) (MB)    (MI)  (FT/S)
SOUTHERN BUOY              64 62  240/  6/  6 1018.0R         0
WAUKEGAN HARBOR            70     270/  6/ 10   N/A
HARRISON CRIB              70     250/ 10/ 11   N/A
BURNHAM HARBOR             73     270/  6/  8   N/A
CALUMET HARBOR             69     210/  2/  4 1017.4R
BURNS HARBOR               66     190/  7/  8   N/A
MICHIGAN CITY              67     170/  5/  6   N/A
MICHIGAN CITY 6N           68 69  210/  6/  8   N/A           1
ST. JOSEPH                 68 69  180/  6/  8   N/A           1
$$

ILZ025>027-034>036-040-047-049-050-058-095>099-011400-
WEST-CENTRAL ILLINOIS

CITY           SKY/WX    TMP DP  RH WIND       PRES   REMARKS
QUINCY         PTSUNNY   70  60  70 CALM      30.08R
GALESBURG*     CLOUDY    64  63  94 CALM      30.10S
MACOMB*        PTSUNNY   65  64  97 CALM      30.11R
$$

ILZ028>032-037-038-041>044-048-051>054-059>061-011400-
CENTRAL ILLINOIS

CITY           SKY/WX    TMP DP  RH WIND       PRES   REMARKS
DECATUR        SUNNY     64  61  90 CALM      30.10R
PEORIA         PTSUNNY   71  62  73 CALM      30.10R
SPRINGFIELD    MOSUNNY   69  64  84 CALM      30.09R
TAYLORVILLE    NOT AVBL
$$

ILZ033-039-045-046-055>057-062-063-011400-
EAST-CENTRAL ILLINOIS

CITY           SKY/WX    TMP DP  RH WIND       PRES   REMARKS
CHAMPAIGN      SUNNY     68  64  87 CALM      30.11R
MATTOON        SUNNY     70  65  84 W3        30.10R
$$

ILZ079-100>102-011400-
SOUTHWEST ILLINOIS

CITY           SKY/WX    TMP DP  RH WIND       PRES   REMARKS
ALTON          MOSUNNY   66  66 100 CALM      30.09S FOG
BELLEVILLE     FOG       64  64 100 CALM      30.08S VSB 1/2
CAHOKIA*       SUNNY     68  65  90 CALM      30.09S
SPARTA*        SUNNY     66  64  94 CALM      30.10S
$$

ILZ064>066-069>071-074>076-080>082-084>086-088>090-092>094-011400-
SOUTH-CENTRAL ILLINOIS

CITY           SKY/WX    TMP DP  RH WIND       PRES   REMARKS
CARBONDALE     MOSUNNY   65  63  93 CALM      30.10R
MARION         SUNNY     68  66  94 MISG      30.10S
MT. VERNON     MOSUNNY   64  61  88 CALM      30.11R
SALEM*         SUNNY     68  67  96 CALM      30.10S FOG
$$

ILZ067-068-072-073-078-083-087-091-011400-
SOUTHEAST ILLINOIS

CITY           SKY/WX    TMP DP  RH WIND       PRES   REMARKS
LAWRENCEVILLE  SUNNY     68  65  90 CALM      30.11S FOG
FLORA*         SUNNY     64  63  94 CALM      30.11R FOG
HARRISBURG*    SUNNY     65  65 100 CALM      30.10S FOG
ROBINSON*      PTSUNNY   66  66  98 CALM      30.12S FOG
CARMI*         SUNNY     68  68 100 CALM      30.09F FOG
$$

ABBREVIATIONS USED IN REMARKS
   TC - TEMPERATURE IN CELSIUS
  WCI - WIND CHILL INDEX
   HX - HEAT INDEX
  VSB - VISIBILITY
$$




USA.gov is the U.S. government's official web portal to all federal, state and local government web resources and services.